Location: Newark
(25.6108°S, 54.5803°W)
Time: 14:25:53
(UTC+00:00)

Altair - Visible Passes

Search period start: 30 October 2020 00:00
Search period end: 09 November 2020 00:00
Orbit: 1502 x 1682 km, 47.2° (Epoch: 29 October)

Date Brightness Start Highest point End Pass type
(mag) Time Alt. Az. Time Alt. Az. Time Alt. Az.
30 Oct 9.1 00:25:51 10° SW 00:33:12 23° SSE 00:38:22 15° SE visible
30 Oct 8.5 02:30:32 10° SW 02:36:21 38° SSW 02:36:21 38° SSW visible
31 Oct 9.1 00:00:33 10° SW 00:07:46 22° SSE 00:14:16 11° ESE visible
31 Oct 8.3 02:05:22 10° SW 02:12:16 43° S 02:12:16 43° S visible
31 Oct 9.2 23:35:14 10° SW 23:42:20 22° S 23:49:15 10° ESE visible
01 Nov 8.1 01:40:11 10° SW 01:48:13 46° SSE 01:48:13 46° SSE visible
01 Nov 9.4 03:45:09 10° WSW 03:46:12 14° WSW 03:46:12 14° WSW visible
01 Nov 9.2 23:09:52 10° SW 23:16:53 21° S 23:23:43 10° SE visible
02 Nov 8.1 01:15:01 10° SW 01:24:10 44° SSE 01:24:10 44° SSE visible
02 Nov 9.2 03:19:51 10° SW 03:22:10 19° WSW 03:22:10 19° WSW visible
02 Nov 9.3 22:44:29 10° SW 22:51:26 21° S 22:58:12 10° SE visible
03 Nov 8.1 00:49:50 10° SW 00:58:53 41° SSE 01:00:10 40° SE visible
03 Nov 8.9 02:54:34 10° SW 02:58:10 26° WSW 02:58:10 26° WSW visible
03 Nov 9.3 22:19:04 10° SW 22:25:58 20° S 22:32:42 10° SE visible
04 Nov 8.3 00:24:39 10° SW 00:33:36 38° SSE 00:36:11 33° ESE visible
04 Nov 8.5 02:29:18 10° SW 02:34:12 34° WSW 02:34:12 34° WSW visible
04 Nov 8.4 23:59:28 10° SW 00:08:17 36° SSE 00:12:14 27° ESE visible
05 Nov 8.2 02:04:03 10° SW 02:10:15 45° WSW 02:10:15 45° WSW visible
05 Nov 8.5 23:34:16 10° SW 23:42:57 34° SSE 23:48:20 20° ESE visible
06 Nov 7.8 01:38:49 10° SW 01:46:21 59° WSW 01:46:21 59° WSW visible
06 Nov 8.6 23:09:03 10° SW 23:17:37 32° SSE 23:24:27 14° E visible
07 Nov 7.4 01:13:35 10° SW 01:22:28 77° SW 01:22:28 77° SW visible
07 Nov 8.7 22:43:50 10° SW 22:52:15 30° SSE 23:00:20 10° E visible
08 Nov 7.3 00:48:22 10° SW 00:58:10 85° SE 00:58:38 81° E visible
08 Nov 9.4 02:55:13 10° WSW 02:56:39 14° W 02:56:39 14° W visible
08 Nov 8.8 22:18:36 10° SW 22:26:52 28° SSE 22:34:51 10° ESE visible
